Alice, TX

11:37 AM CDT on July 20, 2017 (GMT -0500)
Alice International

Weather History for KALI - February, 2014

Change the Weather History Date:

Saturday, February 15, 2014

  Actual Average Record
Temperature  
Mean Temperature 63 °F -  
Max Temperature 80 °F 71 °F 89 °F (2005)
Min Temperature 46 °F 49 °F 34 °F (2004)
Degree Days  
Heating Degree Days 2    
Growing Degree Days 13 (Base 50)    
Moisture  
Dew Point 53 °F    
Average Humidity 73    
Maximum Humidity 100    
Minimum Humidity 45    
Precipitation  
Precipitation 0.00 in - - ()
Sea Level Pressure  
Sea Level Pressure 30.06 in    
Wind  
Wind Speed 8 mph (SE)    
Max Wind Speed 15 mph    
Max Gust Speed 22 mph    
Visibility 7 miles    
Events Fog    
Averages and records for this station are not official NWS values.
T = Trace of Precipitation, MM = Missing Value Source: NWS Daily Summary

Daily Weather History Graph

Daily Weather History Graph

Search for Another Location

Airport or City:

Trip Planner

Search our weather history database for the weather conditions in past years. The results will help you decide how hot, cold, wet, or windy it might be!

Date:

Astronomy

Feb. 15, 2014 Rise Set
Actual Time 7:09 AM CST 6:23 PM CST
Civil Twilight 6:45 AM CST 6:47 PM CST
Nautical Twilight 6:17 AM CST 7:14 PM CST
Astronomical Twilight 5:50 AM CST 7:42 PM CST
Moon 7:15 PM CST (2/15) 7:16 AM CST (2/15)
Length of Visible Light 12h 01m
Length of Day
11h 14m
Waxing Gibbous, 99% of the Moon is Illuminated
Feb 15
Waxing Gibbous
Feb 22
Last Quarter
Mar 1
New
Mar 8
First Quarter
Mar 16
Full

Hourly Weather History & Observations

Time (CST) Temp. Windchill Dew Point Humidity Pressure Visibility Wind Dir Wind Speed Gust Speed Precip Events Conditions
12:53 AM 57.9 °F - 43.0 °F 58% 30.04 in 10.0 mi NE 9.2 mph - N/A   Clear
1:53 AM 57.9 °F - 43.0 °F 58% 30.04 in 10.0 mi NE 6.9 mph - N/A   Clear
2:53 AM 51.1 °F - 39.9 °F 66% 30.05 in 10.0 mi Calm Calm - N/A   Clear
3:53 AM 48.0 °F - 39.9 °F 74% 30.06 in 10.0 mi North 3.5 mph - N/A   Clear
4:53 AM 50.0 °F - 39.0 °F 66% 30.08 in 10.0 mi North 5.8 mph - N/A   Clear
5:53 AM 48.0 °F - 37.0 °F 66% 30.08 in 10.0 mi North 5.8 mph - N/A   Clear
6:53 AM 46.0 °F 42.5 °F 36.0 °F 68% 30.10 in 10.0 mi NE 6.9 mph - N/A   Clear
7:53 AM 51.1 °F - 37.0 °F 59% 30.12 in 10.0 mi NE 4.6 mph - N/A   Clear
8:53 AM 60.1 °F - 39.9 °F 47% 30.14 in 10.0 mi East 8.1 mph - N/A   Clear
9:53 AM 66.9 °F - 46.0 °F 47% 30.15 in 10.0 mi ESE 10.4 mph - N/A   Clear
10:53 AM 73.0 °F - 53.1 °F 49% 30.15 in 10.0 mi ESE 11.5 mph 19.6 mph N/A   Clear
11:53 AM 77.0 °F - 55.0 °F 47% 30.13 in 10.0 mi SE 10.4 mph 19.6 mph N/A   Clear
12:53 PM 78.1 °F - 55.9 °F 46% 30.09 in 10.0 mi ESE 13.8 mph 21.9 mph N/A   Clear
1:53 PM 80.1 °F - 57.0 °F 45% 30.05 in 10.0 mi SSE 13.8 mph 19.6 mph N/A   Clear
2:53 PM 79.0 °F - 59.0 °F 50% 30.03 in 10.0 mi South 12.7 mph 19.6 mph N/A   Partly Cloudy
3:53 PM 80.1 °F - 59.0 °F 48% 30.01 in 10.0 mi SSE 11.5 mph - N/A   Clear
4:53 PM 77.0 °F - 60.1 °F 56% 30.01 in 10.0 mi SE 13.8 mph 21.9 mph N/A   Clear
5:53 PM 73.0 °F - 61.0 °F 66% 30.01 in 10.0 mi SE 15.0 mph - N/A   Clear
6:53 PM 68.0 °F - 61.0 °F 78% 30.02 in 10.0 mi SE 10.4 mph - N/A   Clear
7:53 PM 64.9 °F - 61.0 °F 87% 30.04 in 10.0 mi SE 6.9 mph - N/A   Clear
8:53 PM 63.0 °F - 61.0 °F 93% 30.05 in 10.0 mi SE 8.1 mph - N/A   Clear
9:53 PM 61.0 °F - 59.0 °F 93% 30.05 in 8.0 mi SE 4.6 mph - N/A   Clear
10:43 PM 57.2 °F - 57.2 °F 100% 30.04 in 1.8 mi SE 4.6 mph - N/A   Clear
10:51 PM 57.2 °F - 57.2 °F 100% 30.04 in 0.8 mi SE 4.6 mph - N/A   Mist
10:53 PM 57.9 °F - 57.0 °F 97% 30.04 in 0.8 mi SE 4.6 mph - N/A   Mist
11:03 PM 57.2 °F - 57.2 °F 100% 30.04 in 0.5 mi SE 4.6 mph - N/A Fog Fog
11:14 PM 57.2 °F - 57.2 °F 100% 30.04 in 0.2 mi SE 4.6 mph - N/A Fog Fog
11:22 PM 57.2 °F - 57.2 °F 100% 30.04 in 0.5 mi SSE 5.8 mph - N/A Fog Fog
11:30 PM 57.2 °F - 57.2 °F 100% 30.04 in 0.8 mi SSE 6.9 mph - N/A   Mist
11:34 PM 59.0 °F - 57.2 °F 94% 30.04 in 1.5 mi SSE 5.8 mph - N/A   Mostly Cloudy
11:38 PM 60.8 °F - 59.0 °F 94% 30.04 in 3.0 mi South 6.9 mph - N/A   Scattered Clouds
11:53 PM 62.1 °F - 61.0 °F 96% 30.03 in 6.0 mi South 8.1 mph - N/A   Clear